Location: Three Guys Observatory
(38.6418°N, 87.1521°W)
Time: 16:29:06
(UTC-04:00)

ISS - Visible Passes

Search period start: 24 July 2016 00:00
Search period end: 03 August 2016 00:00
Orbit: 401 x 404 km, 51.6° (Epoch: 24 July)

Date Brightness Start Highest point End Pass type
(mag) Time Alt. Az. Time Alt. Az. Time Alt. Az.
24 Jul -0.3 04:59:39 10° NNW 05:01:56 17° NNE 05:04:13 10° ENE visible
25 Jul 0.0 04:07:11 10° N 04:08:44 13° NNE 04:10:18 10° NE visible
25 Jul -2.5 05:42:34 10° NW 05:45:45 53° NE 05:48:57 10° ESE visible
25 Jul -2.7 22:21:03 10° SSW 22:24:01 33° SE 22:25:57 17° E visible
25 Jul -0.8 23:57:38 10° W 00:05:24 - NE 23:59:03 19° WNW visible
26 Jul 0.4 03:15:13 10° N 03:15:28 10° N 03:15:43 10° NNE visible
26 Jul -1.3 04:49:49 10° NNW 04:52:45 29° NNE 04:55:40 10° E visible
26 Jul -1.7 21:29:07 10° S 21:31:16 16° SE 21:33:24 10° E visible
26 Jul -2.3 23:04:17 10° WSW 23:07:25 46° NW 23:10:35 10° NE visible
27 Jul 0.2 00:43:10 10° NW 00:44:30 12° NNW 00:45:51 10° N visible
27 Jul -0.5 03:57:12 10° NNW 03:59:38 19° NNE 04:02:05 10° ENE visible
27 Jul -3.4 05:33:05 10° WNW 05:36:19 60° SW 05:39:31 10° SE visible
27 Jul -3.4 22:11:13 10° SW 22:14:27 88° SSE 22:17:44 10° NE visible
27 Jul -0.2 23:49:09 10° WNW 23:51:17 16° NNW 23:53:25 10° NNE visible
28 Jul 0.1 03:08:09 10° NE 03:08:09 10° NE 03:08:14 10° NE visible
28 Jul -3.0 04:41:17 20° NW 04:43:24 65° NE 04:46:38 10° ESE visible
28 Jul -0.8 22:55:26 10° W 22:58:07 23° NNW 23:00:50 10° NNE visible
29 Jul -1.8 22:01:59 10° WSW 22:05:04 38° NNW 22:08:09 10° NE visible
29 Jul 0.1 23:41:08 10° NNW 23:42:12 11° NNW 23:43:17 10° N visible
30 Jul -0.2 22:47:01 10° WNW 22:48:58 15° NNW 22:50:54 10° NNE visible
31 Jul -0.6 21:53:13 10° WNW 21:55:46 21° NNW 21:58:20 10° NNE visible
01 Aug 0.0 22:39:10 10° NNW 22:39:53 11° NNW 22:40:36 10° N visible
02 Aug -0.3 21:44:53 10° NW 21:46:36 14° NNW 21:48:21 10° NNE visible
